• In Hungary
  • List of Countries
  • For 7 days
  • Water Temperature
  • Satellite Maps
  • Weather Map
  • News
  • Weather Widgets
  • user-avatar
    Login

    Hourly Weather Muszynka

    Today, 19 June, Tuesday

    Time Temperature Precipitation Wind Pressure Humidity
    00:00 +14°C° 0 mm 2 mps 707 mmHg 94%
    01:00 +14°C° 0 mm 2 mps 707 mmHg 93%
    02:00 +14°C° 0 mm 2 mps 707 mmHg 94%
    03:00 +13°C° 0 mm 2 mps 707 mmHg 95%
    04:00 +13°C° 0 mm 2 mps 708 mmHg 95%
    05:00 +15°C° 0 mm 2 mps 708 mmHg 90%
    06:00 +17°C° 0 mm 2 mps 709 mmHg 84%
    07:00 +19°C° 0 mm 2 mps 709 mmHg 77%
    08:00 +20°C° 0 mm 2 mps 709 mmHg 71%
    09:00 +23°C° 0 mm 2 mps 710 mmHg 66%
    10:00 +24°C° 0 mm 3 mps 710 mmHg 60%
    11:00 +25°C° 0 mm 3 mps 710 mmHg 59%
    12:00 +25°C° 0 mm 3 mps 710 mmHg 57%
    13:00 +25°C° 0 mm 2 mps 710 mmHg 58%
    14:00 +25°C° 0.4 mm 2 mps 710 mmHg 61%
    15:00 +24°C° 0.4 mm 2 mps 710 mmHg 65%
    16:00 +24°C° 0.4 mm 3 mps 710 mmHg 68%
    17:00 +23°C° 0.1 mm 2 mps 710 mmHg 73%
    18:00 +20°C° 0.1 mm 2 mps 709 mmHg 77%
    19:00 +20°C° 0.1 mm 1 mps 709 mmHg 81%
    20:00 +19°C° 0 mm 1 mps 710 mmHg 84%
    21:00 +18°C° 0 mm 1 mps 710 mmHg 86%
    22:00 +15°C° 0 mm 1 mps 710 mmHg 88%
    23:00 +15°C° 0 mm 1 mps 710 mmHg 89%

    Tomorrow, 20 June, Wednesday

    Time Temperature Precipitation Wind Pressure Humidity
    00:00 +14°C° 0 mm 1 mps 710 mmHg 90%
    01:00 +14°C° 0 mm 1 mps 710 mmHg 91%
    02:00 +14°C° 0 mm 1 mps 710 mmHg 92%
    03:00 +14°C° 0 mm 1 mps 710 mmHg 92%
    04:00 +13°C° 0 mm 1 mps 710 mmHg 93%
    05:00 +15°C° 0 mm 1 mps 711 mmHg 86%
    06:00 +18°C° 0 mm 1 mps 711 mmHg 79%
    07:00 +20°C° 0 mm 1 mps 712 mmHg 71%
    08:00 +22°C° 0 mm 1 mps 712 mmHg 66%
    09:00 +23°C° 0 mm 2 mps 712 mmHg 60%
    10:00 +25°C° 0 mm 2 mps 712 mmHg 55%
    11:00 +25°C° 0 mm 2 mps 712 mmHg 55%
    12:00 +25°C° 0 mm 2 mps 712 mmHg 54%
    13:00 +26°C° 0 mm 2 mps 712 mmHg 54%
    14:00 +26°C° 0 mm 2 mps 711 mmHg 54%
    15:00 +26°C° 0 mm 2 mps 711 mmHg 55%
    16:00 +26°C° 0 mm 2 mps 711 mmHg 56%
    17:00 +24°C° 0 mm 1 mps 710 mmHg 64%
    18:00 +23°C° 0 mm 1 mps 710 mmHg 72%
    19:00 +21°C° 0 mm 1 mps 710 mmHg 79%
    20:00 +20°C° 0 mm 1 mps 710 mmHg 83%
    21:00 +19°C° 0 mm 1 mps 710 mmHg 87%
    22:00 +18°C° 0 mm 1 mps 709 mmHg 91%
    23:00 +16°C° 0 mm 1 mps 709 mmHg 92%

    Day after tomorrow, 21 June, Thursday

    Time Temperature Precipitation Wind Pressure Humidity
    00:00 +16°C° 0 mm 1 mps 709 mmHg 92%
    01:00 +16°C° 0 mm 1 mps 709 mmHg 93%
    02:00 +16°C° 0 mm 1 mps 708 mmHg 93%
    03:00 +16°C° 0 mm 1 mps 708 mmHg 93%
    04:00 +16°C° 0 mm 1 mps 708 mmHg 92%
    05:00 +19°C° 0 mm 1 mps 708 mmHg 85%
    06:00 +21°C° 0 mm 1 mps 708 mmHg 78%
    07:00 +23°C° 0 mm 1 mps 708 mmHg 70%
    08:00 +24°C° 0.1 mm 1 mps 708 mmHg 66%
    09:00 +26°C° 0.1 mm 2 mps 707 mmHg 62%
    10:00 +27°C° 0.1 mm 2 mps 707 mmHg 57%
    11:00 +27°C° 0.6 mm 2 mps 706 mmHg 59%
    12:00 +27°C° 0.6 mm 3 mps 706 mmHg 61%
    13:00 +27°C° 0.6 mm 3 mps 705 mmHg 63%
    14:00 +27°C° 0.8 mm 3 mps 705 mmHg 65%
    15:00 +27°C° 0.8 mm 3 mps 704 mmHg 68%
    16:00 +26°C° 0.8 mm 4 mps 704 mmHg 71%
    17:00 +25°C° 0.3 mm 3 mps 703 mmHg 74%
    18:00 +24°C° 0.3 mm 3 mps 703 mmHg 77%
    19:00 +22°C° 0.3 mm 3 mps 702 mmHg 80%
    20:00 +20°C° 0.3 mm 3 mps 702 mmHg 83%
    21:00 +19°C° 0.3 mm 2 mps 702 mmHg 86%
    22:00 +18°C° 0.3 mm 2 mps 702 mmHg 89%
    23:00 +17°C° 1.4 mm 3 mps 702 mmHg 91%

    22 June, Friday

    Time Temperature Precipitation Wind Pressure Humidity
    00:00 +15°C° 1.4 mm 4 mps 702 mmHg 93%
    01:00 +14°C° 1.4 mm 4 mps 703 mmHg 95%
    02:00 +13°C° 0.4 mm 4 mps 703 mmHg 95%
    03:00 +11°C° 0.4 mm 4 mps 703 mmHg 95%
    04:00 +10°C° 0.4 mm 4 mps 703 mmHg 94%
    05:00 +10°C° 0 mm 4 mps 704 mmHg 89%
    06:00 +10°C° 0 mm 4 mps 704 mmHg 85%
    07:00 +8°C° 0 mm 4 mps 704 mmHg 80%
    08:00 +10°C° 0 mm 4 mps 705 mmHg 72%
    09:00 +11°C° 0 mm 4 mps 705 mmHg 65%
    10:00 +12°C° 0 mm 4 mps 705 mmHg 57%
    11:00 +13°C° 0 mm 4 mps 705 mmHg 52%
    12:00 +14°C° 0 mm 4 mps 705 mmHg 48%
    13:00 +15°C° 0 mm 4 mps 705 mmHg 43%
    14:00 +15°C° 0 mm 4 mps 705 mmHg 46%
    15:00 +14°C° 0 mm 4 mps 705 mmHg 49%
    16:00 +14°C° 0 mm 4 mps 705 mmHg 52%
    17:00 +13°C° 0 mm 3 mps 705 mmHg 58%
    18:00 +12°C° 0 mm 3 mps 705 mmHg 64%
    19:00 +12°C° 0 mm 2 mps 705 mmHg 70%
    20:00 +10°C° 0 mm 2 mps 705 mmHg 73%
    21:00 +9°C° 0 mm 2 mps 706 mmHg 77%
    22:00 +7°C° 0 mm 2 mps 706 mmHg 80%
    23:00 +7°C° 0 mm 2 mps 706 mmHg 82%

    23 June, Saturday

    Time Temperature Precipitation Wind Pressure Humidity
    00:00 +6°C° 0 mm 2 mps 706 mmHg 84%
    01:00 +6°C° 0 mm 2 mps 706 mmHg 85%
    02:00 +6°C° 0 mm 2 mps 706 mmHg 85%
    03:00 +6°C° 0 mm 1 mps 706 mmHg 86%
    04:00 +6°C° 0 mm 1 mps 706 mmHg 86%
    05:00 +8°C° 0 mm 2 mps 706 mmHg 78%
    06:00 +10°C° 0 mm 2 mps 707 mmHg 71%
    07:00 +13°C° 0 mm 2 mps 707 mmHg 63%
    08:00 +14°C° 0.3 mm 2 mps 707 mmHg 64%
    09:00 +13°C° 0.3 mm 3 mps 707 mmHg 65%
    10:00 +14°C° 0.3 mm 3 mps 707 mmHg 66%
    11:00 +14°C° 0.5 mm 3 mps 707 mmHg 66%
    12:00 +14°C° 0.5 mm 3 mps 707 mmHg 67%
    13:00 +14°C° 0.5 mm 3 mps 706 mmHg 67%
    14:00 +14°C° 0.3 mm 3 mps 706 mmHg 69%
    15:00 +14°C° 0.3 mm 3 mps 706 mmHg 70%
    16:00 +14°C° 0.3 mm 3 mps 706 mmHg 71%
    17:00 +14°C° 0.2 mm 2 mps 706 mmHg 75%
    18:00 +13°C° 0.2 mm 2 mps 706 mmHg 79%
    19:00 +12°C° 0.2 mm 1 mps 706 mmHg 83%
    20:00 +11°C° 0 mm 1 mps 706 mmHg 85%
    21:00 +10°C° 0 mm 1 mps 707 mmHg 87%
    22:00 +9°C° 0 mm 1 mps 707 mmHg 89%
    23:00 +8°C° 0 mm 1 mps 707 mmHg 90%

    24 June, Sunday

    Time Temperature Precipitation Wind Pressure Humidity
    00:00 +8°C° 0 mm 1 mps 706 mmHg 90%
    01:00 +7°C° 0 mm 1 mps 706 mmHg 90%
    02:00 +7°C° 0 mm 1 mps 706 mmHg 90%
    03:00 +7°C° 0 mm 1 mps 706 mmHg 91%
    04:00 +7°C° 0 mm 1 mps 707 mmHg 91%
    05:00 +9°C° 0 mm 1 mps 707 mmHg 86%
    06:00 +9°C° 0 mm 2 mps 707 mmHg 81%
    07:00 +12°C° 0 mm 2 mps 708 mmHg 76%
    08:00 +14°C° 0.1 mm 2 mps 708 mmHg 70%
    09:00 +15°C° 0.1 mm 2 mps 708 mmHg 65%
    10:00 +17°C° 0.1 mm 2 mps 708 mmHg 59%
    11:00 +17°C° 0.4 mm 2 mps 708 mmHg 59%
    12:00 +17°C° 0.4 mm 2 mps 708 mmHg 60%
    13:00 +18°C° 0.4 mm 2 mps 708 mmHg 60%
    14:00 +17°C° 0.5 mm 2 mps 708 mmHg 65%
    15:00 +17°C° 0.5 mm 2 mps 708 mmHg 70%
    16:00 +16°C° 0.5 mm 2 mps 707 mmHg 75%
    17:00 +15°C° 0.3 mm 2 mps 707 mmHg 80%
    18:00 +14°C° 0.3 mm 1 mps 707 mmHg 84%
    19:00 +13°C° 0.3 mm 1 mps 707 mmHg 89%
    20:00 +12°C° 0 mm 1 mps 707 mmHg 90%
    21:00 +11°C° 0 mm 1 mps 707 mmHg 92%
    22:00 +10°C° 0 mm 1 mps 708 mmHg 93%
    23:00 +9°C° 0 mm 1 mps 708 mmHg 93%
    Show more